Location: San Martino di Castrozza
(46.2667°N, 11.8000°E)
Time: 02:16:18
(UTC+00:00)

OE (NEXTSAT) - Pass Details

Date: 23 April 2021
Orbit: 425 x 433 km, 46.0° (Epoch: 15 May)

Event Time Altitude Azimuth Distance (km) Brightness Sun altitude
Exits shadow 02:05:24 77° 219° (SW) 447 4.1 -19.4°
Maximum altitude 02:05:34 81° 173° (S) 441 4.2 -19.4°
Drops below altitude 10° 02:09:02 10° 85° (E) 1,530 7.8 -18.9°
Sets 02:11:09 0° 85° (E) 2,396 8.9 -18.7°
